Total_Precipitation_Accumulation
0.00 0.00 0.00 0.00 0.00 0.00 0.00 0.00 0.00 0.00 0.00 0.00 0.00 0.01 0.02 0.04 0.05 0.06 0.07 0.11 0.16 0.25 0.42 0.64 0.96 1.26 1.58 1.95 2.42 2.61 2.56 2.12 1.67 1.49 1.30 1.18 1.03 0.93 0.89 0.81 0.70 0.60 0.49 0.47
0.00 0.00 0.00 0.00 0.00 0.00 0.00 0.00 0.00 0.00 0.00 0.00 0.00 0.01 0.01 0.02 0.03 0.04 0.06 0.11 0.21 0.38 0.63 1.01 1.44 1.65 1.62 1.87 2.35 2.41 1.96 1.50 1.22 1.08 0.96 0.83 0.79 0.73 0.66 0.57 0.48 0.43 0.41 0.41
0.00 0.00 0.00 0.00 0.00 0.00 0.00 0.00 0.00 0.00 0.00 0.00 0.00 0.00 0.01 0.02 0.03 0.05 0.09 0.15 0.27 0.50 0.82 1.15 1.49 1.58 1.48 1.68 1.73 1.44 1.15 0.89 0.70 0.60 0.55 0.56 0.53 0.50 0.42 0.35 0.31 0.32 0.35 0.33
0.00 0.00 0.00 0.00 0.00 0.00 0.00 0.00 0.00 0.00 0.00 0.00 0.00 0.01 0.02 0.04 0.07 0.10 0.15 0.23 0.30 0.37 0.52 0.75 0.94 1.06 1.14 1.15 1.00 0.81 0.70 0.58 0.53 0.52 0.45 0.51 0.45 0.39 0.34 0.28 0.27 0.29 0.30 0.27
0.01 0.01 0.00 0.00 0.00 0.00 0.00 0.00 0.00 0.00 0.00 0.00 0.01 0.02 0.04 0.07 0.14 0.23 0.30 0.32 0.29 0.25 0.29 0.41 0.46 0.53 0.60 0.61 0.56 0.46 0.53 0.59 0.54 0.50 0.44 0.40 0.34 0.29 0.26 0.28 0.30 0.33 0.33 0.30
0.02 0.02 0.01 0.00 0.00 0.00 0.00 0.00 0.00 0.00 0.01 0.04 0.07 0.08 0.10 0.16 0.23 0.36 0.36 0.29 0.23 0.21 0.26 0.30 0.28 0.25 0.25 0.26 0.25 0.25 0.32 0.39 0.39 0.39 0.38 0.35 0.32 0.30 0.27 0.27 0.28 0.29 0.31 0.32
0.07 0.05 0.03 0.01 0.01 0.01 0.01 0.01 0.01 0.02 0.06 0.12 0.15 0.12 0.19 0.29 0.39 0.47 0.35 0.22 0.17 0.16 0.18 0.21 0.21 0.18 0.15 0.14 0.13 0.12 0.14 0.22 0.25 0.27 0.31 0.30 0.30 0.29 0.28 0.25 0.24 0.25 0.25 0.28
0.05 0.06 0.02 0.01 0.03 0.03 0.03 0.02 0.02 0.02 0.02 0.03 0.06 0.13 0.27 0.33 0.40 0.33 0.18 0.10 0.08 0.09 0.09 0.11 0.11 0.10 0.09 0.08 0.07 0.06 0.06 0.07 0.09 0.12 0.17 0.18 0.22 0.23 0.24 0.31 0.29 0.25 0.24 0.27
0.01 0.01 0.01 0.02 0.03 0.04 0.03 0.02 0.02 0.02 0.02 0.03 0.07 0.16 0.22 0.25 0.29 0.19 0.10 0.05 0.04 0.05 0.05 0.05 0.05 0.05 0.04 0.04 0.04 0.04 0.04 0.04 0.05 0.05 0.07 0.10 0.13 0.17 0.24 0.30 0.28 0.24 0.24 0.22
0.00 0.00 0.00 0.01 0.02 0.03 0.03 0.03 0.02 0.02 0.03 0.02 0.06 0.20 0.31 0.33 0.30 0.17 0.08 0.04 0.03 0.03 0.03 0.03 0.03 0.03 0.03 0.02 0.02 0.02 0.03 0.03 0.03 0.03 0.03 0.05 0.10 0.18 0.25 0.29 0.26 0.22 0.21 0.19
0.00 0.00 0.00 0.01 0.02 0.03 0.04 0.04 0.03 0.04 0.05 0.05 0.06 0.17 0.21 0.24 0.20 0.11 0.06 0.04 0.01 0.01 0.01 0.01 0.01 0.01 0.01 0.01 0.01 0.02 0.02 0.02 0.02 0.02 0.03 0.07 0.16 0.20 0.27 0.42 0.40 0.24 0.18 0.16
0.00 0.00 0.00 0.01 0.03 0.04 0.05 0.05 0.04 0.05 0.05 0.04 0.06 0.13 0.10 0.11 0.09 0.06 0.04 0.02 0.01 0.01 0.00 0.00 0.00 0.01 0.01 0.01 0.01 0.01 0.01 0.02 0.02 0.02 0.02 0.05 0.14 0.19 0.23 0.30 0.33 0.25 0.19 0.16
0.00 0.00 0.01 0.02 0.04 0.06 0.05 0.04 0.04 0.05 0.04 0.03 0.11 0.18 0.08 0.05 0.04 0.03 0.02 0.01 0.00 0.00 0.00 0.00 0.00 0.00 0.01 0.01 0.01 0.01 0.01 0.01 0.01 0.02 0.02 0.04 0.06 0.07 0.08 0.10 0.14 0.19 0.21 0.21
0.00 0.01 0.00 0.01 0.01 0.02 0.04 0.05 0.08 0.06 0.06 0.07 0.11 0.17 0.07 0.03 0.01 0.01 0.00 0.00 0.00 0.00 0.00 0.00 0.00 0.00 0.00 0.00 0.00 0.01 0.01 0.01 0.01 0.02 0.03 0.03 0.03 0.03 0.03 0.06 0.10 0.16 0.18 0.19
0.00 0.00 0.00 0.00 0.01 0.02 0.03 0.05 0.06 0.05 0.06 0.10 0.08 0.08 0.04 0.01 0.01 0.01 0.00 0.00 0.00 0.00 0.01 0.01 0.01 0.01 0.01 0.01 0.01 0.01 0.01 0.01 0.02 0.04 0.08 0.08 0.06 0.05 0.04 0.06 0.08 0.10 0.10 0.10
0.00 0.00 0.00 0.00 0.01 0.01 0.03 0.06 0.05 0.02 0.02 0.02 0.02 0.03 0.01 0.02 0.02 0.02 0.02 0.02 0.02 0.02 0.02 0.02 0.02 0.02 0.01 0.01 0.01 0.01 0.01 0.01 0.04 0.07 0.12 0.16 0.12 0.06 0.04 0.04 0.04 0.05 0.05 0.06
0.00 0.00 0.00 0.01 0.01 0.02 0.08 0.06 0.03 0.01 0.02 0.03 0.04 0.05 0.04 0.05 0.05 0.07 0.07 0.06 0.05 0.04 0.03 0.02 0.01 0.01 0.01 0.01 0.01 0.02 0.02 0.02 0.08 0.12 0.10 0.17 0.17 0.07 0.03 0.03 0.04 0.06 0.05 0.07
0.00 0.00 0.00 0.01 0.01 0.06 0.07 0.02 0.01 0.01 0.02 0.03 0.05 0.06 0.08 0.09 0.09 0.09 0.10 0.08 0.04 0.02 0.01 0.00 0.00 0.00 0.00 0.00 0.00 0.02 0.04 0.04 0.11 0.14 0.11 0.16 0.18 0.09 0.08 0.08 0.09 0.08 0.08 0.10
0.00 0.00 0.00 0.00 0.01 0.05 0.03 0.02 0.03 0.04 0.05 0.06 0.08 0.11 0.11 0.09 0.06 0.04 0.03 0.02 0.01 0.00 0.00 0.00 0.00 0.00 0.00 0.01 0.01 0.02 0.07 0.10 0.11 0.13 0.12 0.17 0.23 0.17 0.16 0.16 0.18 0.18 0.19 0.20
0.00 0.00 0.00 0.01 0.01 0.04 0.04 0.04 0.06 0.07 0.14 0.12 0.09 0.07 0.04 0.02 0.03 0.01 0.00 0.00 0.00 0.00 0.00 0.00 0.00 0.00 0.01 0.01 0.03 0.04 0.06 0.11 0.13 0.13 0.15 0.20 0.31 0.33 0.29 0.27 0.27 0.26 0.31 0.33
0.00 0.01 0.01 0.02 0.04 0.06 0.02 0.04 0.05 0.12 0.15 0.05 0.02 0.02 0.02 0.02 0.03 0.01 0.00 0.01 0.01 0.00 0.00 0.01 0.01 0.01 0.02 0.03 0.06 0.10 0.11 0.13 0.15 0.18 0.21 0.26 0.36 0.47 0.45 0.42 0.38 0.36 0.37 0.42
0.00 0.01 0.01 0.03 0.07 0.11 0.02 0.02 0.05 0.06 0.04 0.02 0.02 0.02 0.02 0.02 0.01 0.01 0.01 0.01 0.01 0.01 0.01 0.02 0.03 0.04 0.05 0.08 0.14 0.20 0.20 0.20 0.23 0.25 0.28 0.33 0.43 0.46 0.49 0.51 0.53 0.56 0.55 0.57
0.00 0.01 0.02 0.04 0.07 0.03 0.00 0.01 0.02 0.02 0.02 0.02 0.02 0.02 0.02 0.02 0.02 0.02 0.03 0.02 0.02 0.01 0.02 0.03 0.05 0.08 0.11 0.15 0.25 0.32 0.33 0.35 0.35 0.34 0.34 0.38 0.45 0.54 0.64 0.65 0.62 0.65 0.69 0.71
0.00 0.00 0.01 0.03 0.02 0.01 0.01 0.01 0.02 0.01 0.02 0.02 0.01 0.01 0.01 0.03 0.04 0.05 0.05 0.04 0.03 0.03 0.03 0.04 0.07 0.12 0.16 0.24 0.35 0.43 0.46 0.47 0.46 0.41 0.38 0.42 0.49 0.56 0.66 0.78 0.79 0.81 0.81 0.83
0.00 0.00 0.01 0.02 0.01 0.00 0.01 0.01 0.01 0.01 0.01 0.01 0.00 0.01 0.02 0.04 0.05 0.06 0.06 0.06 0.05 0.04 0.04 0.06 0.10 0.16 0.19 0.29 0.43 0.50 0.53 0.56 0.54 0.48 0.42 0.43 0.48 0.53 0.60 0.71 0.79 0.84 0.85 0.84
0.00 0.00 0.00 0.01 0.00 0.00 0.01 0.00 0.00 0.00 0.01 0.01 0.01 0.01 0.02 0.03 0.04 0.04 0.05 0.04 0.04 0.04 0.07 0.11 0.15 0.21 0.24 0.30 0.40 0.49 0.62 0.73 0.74 0.64 0.55 0.49 0.47 0.50 0.56 0.63 0.64 0.60 0.65 0.65